Rbgn^[z[y[W
メイン
   新天体発見情報
     Comet C/2023 F3 (ATLAS)
投稿するにはまず登録を

フラット表示 前のトピック | 次のトピック
投稿者 スレッド
佐藤裕久
投稿日時: 2023-7-31 12:31
モデレータ
登録日: 2005-6-12
居住地: 日本
投稿: 2669
オンライン
Comet C/2023 F3 (ATLAS)

3月28日UT、チリ Rio Hurtadoにある小惑星地球衝突最終警報システム Asteroid Terrestrial-
impact Last Alert System (ATLAS)調査プログラムのコースに0.5-m f/2 Schmidt反射望遠鏡で
得たCCD画像から小惑星状天体を発見した。
小惑星センターのPCCP webpageに公表後、佐藤英貴氏(東京都文京区,3月29.4日UT、60-秒露出
6枚のスタック, "Deep Sky Chile" 0.51-m f/6.8 アストログラフ, Rio Hurtado, チリ, 遠隔
操作:強く集光した5" のコマが見えるが尾はない。2".9の円形範囲で測定した光度は18.8等で
あった。3月31.79日UT、120-秒露出6枚のスタック, 0.43-m f/6.8 アストログラフ,Siding 
Spring, NSW, オーストラリア, 遠隔操作:恒星のように見えるだけであった。3".8の円形範囲
で測定した光度は19.2等であった)らCCD位置観測者によって彗星状と観測された。

彗星機能の報告は次のとおり、

OC   Date        Reporter           Coma    Tail    PA          Exposures
L87  2023-05-09  J. Camarasa        4".86
M21  2023-07-14  A. Aletti          5"               25-45
Q62  2023-07-16  T. Prystavski     12"                            8x120s

発見位置は次のとおり、

     2023 UT             R.A. (2000) Decl.       Mag.
     Mar. 28.35310   18 43 22.97   -35 18 21.2   18.8
          28.37010   18 43 22.82   -35 18 25.5   18.8
          28.37285   18 43 22.76   -35 18 25.9   18.6
          28.38519   18 43 22.65   -35 18 29.2   18.8

MPCの双曲線軌道要素、位置推算表は次のとおり、

Orbital elements:
    C/2023 F3 (ATLAS)                                                           
Epoch 2023 Sept. 13.0 TT = JDT 2460200.5                                        
T 2025 Feb. 2.91921 TT                                  Rudenko                 
q   5.1898470            (2000.0)            P               Q                  
z  -0.0007730      Peri.  265.54894     -0.75315134     -0.39250827             
 +/-0.0000519      Node   109.44333     -0.09741451     +0.86019343             
e   1.0040119      Incl.  145.95470     -0.65059471     +0.32558336             
From 109 observations 2023 Mar. 28-July 17, mean residual 0".5.                 
                                                                                
Ephemeris:
Date    TT    R. A. (2000) Decl.     Delta      r    Elong.  Phase   m1
2023 06 20    17 38 20.5 -40 56 39   5.8152  6.7901   162.3     2.6  18.1
...
2023 07 05    17 19 33.4 -41 14 13   5.8007  6.7223   153.0     3.9  18.1
...
2023 07 13    17 09 58.3 -41 14 51   5.8248  6.6865   145.4     5.0  18.1
...
2023 07 19    17 03 10.3 -41 11 51   5.8562  6.6598   139.3     5.7  18.1
2023 07 20    17 02 04.8 -41 11 05   5.8625  6.6554   138.3     5.8  18.1
2023 07 21    17 00 59.9 -41 10 16   5.8691  6.6510   137.2     6.0  18.1
...
2023 07 27    16 54 47.5 -41 04 04   5.9140  6.6244   131.0     6.6  18.1
...
2023 08 04    16 47 19.3 -40 53 05   5.9874  6.5893   122.6     7.5  18.1
...
2023 08 19    16 36 03.4 -40 28 02   6.1569  6.5241   106.9     8.5  18.1

(MPEC 2023-O43、CBET 5279)

フラット表示 前のトピック | 次のトピック

題名 投稿者 日時
 » Comet C/2023 F3 (ATLAS) 佐藤裕久 2023-7-31 12:31

投稿するにはまず登録を
 
© 1999 Tsutomu Seki.